SWA456 KLGB-KSJC

Flight info

Callsign SWA456
Flight time 0h 52m
Altitude 40000
Route VTU RZS SCTRR TROXX SILCN6
Aircraft B737/M-SADE2E3GIJ4RWZ/LB1D1

Departure

Time 2026-05-04 23:08
Airport Long Beach International Airport (KLGB)

Arrival

Time 2026-05-05 00:01
Airport Norman Y. Mineta San Jose International Airport (KSJC)
Time Latitude Longitude Altitude Speed Heading
2026-05-04 22:29 33.81899 -118.14601 42 ft 0 kts 89°
2026-05-04 22:44 33.81899 -118.14611 42 ft 4 kts 90°
2026-05-04 22:44 33.81900 -118.14642 42 ft 4 kts 96°
2026-05-04 22:44 33.81905 -118.14672 42 ft 4 kts 110°
2026-05-04 22:44 33.81916 -118.14696 42 ft 4 kts 154°
2026-05-04 22:45 33.81925 -118.14700 42 ft 0 kts 180°
2026-05-04 23:04 33.81913 -118.14700 42 ft 5 kts 180°
2026-05-04 23:04 33.81846 -118.14701 42 ft 14 kts 180°
2026-05-04 23:04 33.81733 -118.14701 42 ft 19 kts 180°
2026-05-04 23:04 33.81595 -118.14705 43 ft 15 kts 172°
2026-05-04 23:05 33.81514 -118.14629 39 ft 17 kts 135°
2026-05-04 23:05 33.81420 -118.14516 42 ft 21 kts 135°
2026-05-04 23:05 33.81315 -118.14388 42 ft 21 kts 135°
2026-05-04 23:05 33.81215 -118.14267 42 ft 20 kts 134°
2026-05-04 23:06 33.81119 -118.14151 41 ft 19 kts 135°
2026-05-04 23:06 33.81023 -118.14034 41 ft 20 kts 135°
2026-05-04 23:06 33.80928 -118.13919 43 ft 20 kts 135°
2026-05-04 23:06 33.80832 -118.13804 43 ft 15 kts 135°
2026-05-04 23:07 33.80768 -118.13757 43 ft 3 kts 186°
2026-05-04 23:07 33.80765 -118.13758 43 ft 0 kts 190°
2026-05-04 23:07 33.80756 -118.13761 41 ft 6 kts 199°
2026-05-04 23:07 33.80717 -118.13814 42 ft 11 kts 255°
2026-05-04 23:08 33.80773 -118.13920 42 ft 34 kts 315°
2026-05-04 23:08 33.81193 -118.14429 41 ft 135 kts 314°
2026-05-04 23:08 33.81958 -118.15384 629 ft 167 kts 310°
2026-05-04 23:08 33.82595 -118.16495 1862 ft 162 kts 283°
2026-05-04 23:09 33.82889 -118.17874 2746 ft 181 kts 283°
2026-05-04 23:09 33.83232 -118.19398 3565 ft 201 kts 282°
2026-05-04 23:09 33.83567 -118.21192 3952 ft 241 kts 282°
2026-05-04 23:09 33.83936 -118.23259 4786 ft 258 kts 281°
2026-05-04 23:10 33.84314 -118.25373 6137 ft 260 kts 281°
2026-05-04 23:10 33.84703 -118.27549 7145 ft 270 kts 281°
2026-05-04 23:10 33.85097 -118.29765 8559 ft 272 kts 281°
2026-05-04 23:10 33.85496 -118.32003 10017 ft 276 kts 281°
2026-05-04 23:11 33.85919 -118.34317 11169 ft 291 kts 281°
2026-05-04 23:11 33.86394 -118.36729 12355 ft 300 kts 281°
2026-05-04 23:11 33.86911 -118.39182 13591 ft 307 kts 281°
2026-05-04 23:11 33.87459 -118.41640 13930 ft 303 kts 281°
2026-05-04 23:12 33.88025 -118.44110 13981 ft 309 kts 281°
2026-05-04 23:12 33.88598 -118.46587 13997 ft 307 kts 281°
2026-05-04 23:12 33.89175 -118.49059 14003 ft 306 kts 281°
2026-05-04 23:12 33.89755 -118.51527 14001 ft 306 kts 281°
2026-05-04 23:13 33.90335 -118.53995 13997 ft 306 kts 281°
2026-05-04 23:13 33.90915 -118.56461 14002 ft 306 kts 282°
2026-05-04 23:13 33.91714 -118.58882 14340 ft 317 kts 291°
2026-05-04 23:13 33.92740 -118.61260 15566 ft 319 kts 293°
2026-05-04 23:14 33.93798 -118.63610 16929 ft 320 kts 292°
2026-05-04 23:14 33.94858 -118.65979 18145 ft 323 kts 291°
2026-05-04 23:14 33.95919 -118.68385 19278 ft 327 kts 291°
2026-05-04 23:14 33.96981 -118.70827 20375 ft 331 kts 290°
2026-05-04 23:15 33.98046 -118.73300 21470 ft 335 kts 289°
2026-05-04 23:15 33.99118 -118.75802 22523 ft 338 kts 288°
2026-05-04 23:15 34.00197 -118.78331 23563 ft 341 kts 288°
2026-05-04 23:15 34.01283 -118.80885 24520 ft 345 kts 288°
2026-05-04 23:16 34.02011 -118.82599 25103 ft 349 kts 287°
2026-05-04 23:16 34.03125 -118.85226 25926 ft 355 kts 286°
2026-05-04 23:16 34.04257 -118.87898 26701 ft 362 kts 285°
2026-05-04 23:16 34.05410 -118.90620 27453 ft 368 kts 285°
2026-05-04 23:17 34.06589 -118.93386 28189 ft 374 kts 284°
2026-05-04 23:17 34.07778 -118.96197 28927 ft 378 kts 284°
2026-05-04 23:17 34.08981 -118.99033 29676 ft 381 kts 283°
2026-05-04 23:17 34.10186 -119.01892 30294 ft 384 kts 282°
2026-05-04 23:18 34.11418 -119.04771 31173 ft 386 kts 284°
2026-05-04 23:18 34.12802 -119.07536 32334 ft 383 kts 287°
2026-05-04 23:18 34.14273 -119.10216 33153 ft 383 kts 287°
2026-05-04 23:18 34.15775 -119.12891 33732 ft 387 kts 287°
2026-05-04 23:19 34.17288 -119.15581 34346 ft 387 kts 287°
2026-05-04 23:19 34.18794 -119.18258 35084 ft 383 kts 286°
2026-05-04 23:19 34.20276 -119.20901 35857 ft 378 kts 286°
2026-05-04 23:19 34.21736 -119.23526 36501 ft 375 kts 286°
2026-05-04 23:20 34.23182 -119.26147 37032 ft 375 kts 286°
2026-05-04 23:20 34.24623 -119.28768 37594 ft 373 kts 286°
2026-05-04 23:20 34.26053 -119.31372 38172 ft 371 kts 286°
2026-05-04 23:20 34.27456 -119.33925 38717 ft 368 kts 286°
2026-05-04 23:21 34.28889 -119.36540 39186 ft 368 kts 287°
2026-05-04 23:21 34.30279 -119.39078 39659 ft 367 kts 287°
2026-05-04 23:21 34.31688 -119.41655 40007 ft 369 kts 287°
2026-05-04 23:21 34.33116 -119.44284 40028 ft 378 kts 288°
2026-05-04 23:22 34.36032 -119.49624 40035 ft 379 kts 288°
2026-05-04 23:22 34.38918 -119.54875 40040 ft 371 kts 288°
2026-05-04 23:23 34.41767 -119.60107 40047 ft 373 kts 288°
2026-05-04 23:23 34.44629 -119.65372 40053 ft 375 kts 288°
2026-05-04 23:24 34.47509 -119.70669 40060 ft 378 kts 288°
2026-05-04 23:24 34.50565 -119.75921 40042 ft 393 kts 297°
2026-05-04 23:25 34.52545 -119.78281 40033 ft 407 kts 305°
2026-05-04 23:25 34.54878 -119.80330 40053 ft 417 kts 311°
2026-05-04 23:25 34.59785 -119.84152 40046 ft 419 kts 313°
2026-05-04 23:26 34.64703 -119.87929 40046 ft 417 kts 313°
2026-05-04 23:26 34.69585 -119.91740 40038 ft 417 kts 313°
2026-05-04 23:27 34.74449 -119.95576 40027 ft 416 kts 313°
2026-05-04 23:27 34.79288 -119.99405 40025 ft 414 kts 313°
2026-05-04 23:28 34.84115 -120.03235 40028 ft 415 kts 314°
2026-05-04 23:28 34.88972 -120.07096 40034 ft 419 kts 314°
2026-05-04 23:29 34.93873 -120.10994 40043 ft 422 kts 315°
2026-05-04 23:29 34.98793 -120.14909 40048 ft 423 kts 315°
2026-05-04 23:30 35.03730 -120.18842 40038 ft 424 kts 315°
2026-05-04 23:30 35.08661 -120.22777 40028 ft 423 kts 316°
2026-05-04 23:31 35.13572 -120.26700 40031 ft 421 kts 316°
2026-05-04 23:31 35.18457 -120.30611 40029 ft 419 kts 316°
2026-05-04 23:32 35.23325 -120.34516 40035 ft 418 kts 316°
2026-05-04 23:32 35.28185 -120.38421 40035 ft 418 kts 316°
2026-05-04 23:33 35.33046 -120.42331 40042 ft 419 kts 316°
2026-05-04 23:33 35.37920 -120.46258 40042 ft 419 kts 317°
2026-05-04 23:34 35.42795 -120.50190 40045 ft 420 kts 317°
2026-05-04 23:34 35.47646 -120.54109 40058 ft 420 kts 317°
2026-05-04 23:35 35.52567 -120.58090 40041 ft 421 kts 317°
2026-05-04 23:35 35.57499 -120.61992 40054 ft 422 kts 318°
2026-05-04 23:36 35.62460 -120.65858 40048 ft 422 kts 318°
2026-05-04 23:36 35.64915 -120.67777 39644 ft 425 kts 318°
2026-05-04 23:36 35.67398 -120.69721 39201 ft 423 kts 318°
2026-05-04 23:37 35.69878 -120.71666 38686 ft 422 kts 317°
2026-05-04 23:37 35.72345 -120.73605 38170 ft 421 kts 317°
2026-05-04 23:37 35.74810 -120.75545 37634 ft 420 kts 317°
2026-05-04 23:37 35.77268 -120.77483 37089 ft 419 kts 317°
2026-05-04 23:38 35.79726 -120.79422 36525 ft 419 kts 317°
2026-05-04 23:38 35.82182 -120.81360 35945 ft 419 kts 317°
2026-05-04 23:38 35.84637 -120.83298 35307 ft 420 kts 317°
2026-05-04 23:38 35.87098 -120.85245 34649 ft 421 kts 317°
2026-05-04 23:39 35.89565 -120.87198 33974 ft 422 kts 316°
2026-05-04 23:39 35.92044 -120.89160 33329 ft 423 kts 316°
2026-05-04 23:39 35.94508 -120.91108 32816 ft 419 kts 316°
2026-05-04 23:39 35.96953 -120.93041 32292 ft 415 kts 316°
2026-05-04 23:40 35.99369 -120.94956 31794 ft 411 kts 316°
2026-05-04 23:40 36.01739 -120.96884 31302 ft 403 kts 314°
2026-05-04 23:40 36.03964 -120.98911 30889 ft 393 kts 313°
2026-05-04 23:40 36.06113 -121.00978 30408 ft 389 kts 313°
2026-05-04 23:41 36.08224 -121.03037 30117 ft 387 kts 313°
2026-05-04 23:41 36.10334 -121.05091 30072 ft 381 kts 314°
2026-05-04 23:41 36.12390 -121.07066 30044 ft 366 kts 314°
2026-05-04 23:41 36.14364 -121.08952 30038 ft 351 kts 314°
2026-05-04 23:42 36.16262 -121.10761 30033 ft 337 kts 313°
2026-05-04 23:42 36.18082 -121.12499 30038 ft 324 kts 313°
2026-05-04 23:42 36.19806 -121.14147 30042 ft 311 kts 313°
2026-05-04 23:42 36.21506 -121.15771 30030 ft 298 kts 313°
2026-05-04 23:43 36.23095 -121.17292 30039 ft 288 kts 312°
2026-05-04 23:43 36.24654 -121.18788 30038 ft 281 kts 312°
2026-05-04 23:43 36.26226 -121.20312 30079 ft 298 kts 313°
2026-05-04 23:43 36.27930 -121.21969 30096 ft 325 kts 314°
2026-05-04 23:44 36.29786 -121.23756 30092 ft 350 kts 314°
2026-05-04 23:44 36.31767 -121.25652 30081 ft 363 kts 315°
2026-05-04 23:44 36.33744 -121.27531 29808 ft 355 kts 315°
2026-05-04 23:44 36.35699 -121.29395 29112 ft 354 kts 315°
2026-05-04 23:45 36.37646 -121.31267 28159 ft 357 kts 315°
2026-05-04 23:45 36.39622 -121.33175 27050 ft 363 kts 316°
2026-05-04 23:45 36.41632 -121.35117 25915 ft 368 kts 317°
2026-05-04 23:45 36.43661 -121.37073 24907 ft 368 kts 319°
2026-05-04 23:46 36.45673 -121.39012 24079 ft 363 kts 320°
2026-05-04 23:46 36.47647 -121.40915 23254 ft 357 kts 320°
2026-05-04 23:46 36.49625 -121.42786 22181 ft 358 kts 325°
2026-05-04 23:46 36.51890 -121.44096 21063 ft 361 kts 339°
2026-05-04 23:47 36.54268 -121.45080 19983 ft 360 kts 341°
2026-05-04 23:47 36.56643 -121.46025 18918 ft 357 kts 341°
2026-05-04 23:47 36.58997 -121.46970 17868 ft 354 kts 341°
2026-05-04 23:47 36.61319 -121.47921 16835 ft 349 kts 340°
2026-05-04 23:48 36.63607 -121.48873 15809 ft 344 kts 341°
2026-05-04 23:48 36.65865 -121.49822 15014 ft 339 kts 341°
2026-05-04 23:48 36.68045 -121.50743 14793 ft 324 kts 341°
2026-05-04 23:48 36.70137 -121.51629 14531 ft 312 kts 341°
2026-05-04 23:49 36.72156 -121.52485 14255 ft 304 kts 341°
2026-05-04 23:49 36.74154 -121.53331 13892 ft 303 kts 341°
2026-05-04 23:49 36.76144 -121.54175 13485 ft 301 kts 341°
2026-05-04 23:49 36.78124 -121.55015 13073 ft 300 kts 341°
2026-05-04 23:50 36.80088 -121.55847 12664 ft 298 kts 341°
2026-05-04 23:50 36.82042 -121.56677 12264 ft 295 kts 342°
2026-05-04 23:50 36.83983 -121.57505 11845 ft 294 kts 342°
2026-05-04 23:50 36.85915 -121.58333 11445 ft 294 kts 341°
2026-05-04 23:51 36.87843 -121.59150 11035 ft 290 kts 341°
2026-05-04 23:51 36.89751 -121.59966 10625 ft 289 kts 341°
2026-05-04 23:51 36.91647 -121.60774 10234 ft 287 kts 341°
2026-05-04 23:51 36.93526 -121.61573 9840 ft 284 kts 341°
2026-05-04 23:52 36.95384 -121.62357 9446 ft 280 kts 341°
2026-05-04 23:52 36.97219 -121.63135 9065 ft 277 kts 340°
2026-05-04 23:52 36.99033 -121.63907 8674 ft 275 kts 340°
2026-05-04 23:52 37.00835 -121.64670 8292 ft 273 kts 340°
2026-05-04 23:53 37.02624 -121.65430 7927 ft 271 kts 340°
2026-05-04 23:53 37.04406 -121.66187 7555 ft 270 kts 340°
2026-05-04 23:53 37.06175 -121.66944 7187 ft 268 kts 340°
2026-05-04 23:53 37.07940 -121.67694 6810 ft 268 kts 341°
2026-05-04 23:54 37.09706 -121.68429 6441 ft 267 kts 340°
2026-05-04 23:54 37.11456 -121.69179 6072 ft 264 kts 340°
2026-05-04 23:54 37.13187 -121.69921 5712 ft 262 kts 340°
2026-05-04 23:54 37.14907 -121.70656 5356 ft 261 kts 340°
2026-05-04 23:55 37.16586 -121.71490 4989 ft 258 kts 329°
2026-05-04 23:55 37.18008 -121.72789 4635 ft 255 kts 318°
2026-05-04 23:55 37.20567 -121.75669 3949 ft 233 kts 317°
2026-05-04 23:56 37.21745 -121.76979 3647 ft 219 kts 317°
2026-05-04 23:56 37.22851 -121.78203 3354 ft 207 kts 318°
2026-05-04 23:56 37.23904 -121.79364 3087 ft 197 kts 318°
2026-05-04 23:56 37.24913 -121.80476 2824 ft 189 kts 318°
2026-05-04 23:57 37.25889 -121.81553 2588 ft 185 kts 319°
2026-05-04 23:57 37.26821 -121.82579 2344 ft 170 kts 317°
2026-05-04 23:57 37.27678 -121.83523 2134 ft 159 kts 317°
2026-05-04 23:57 37.28485 -121.84413 1929 ft 147 kts 317°
2026-05-04 23:58 37.29222 -121.85227 1738 ft 137 kts 318°
2026-05-04 23:58 37.29892 -121.85965 1553 ft 121 kts 319°
2026-05-04 23:58 37.30494 -121.86631 1394 ft 110 kts 318°
2026-05-04 23:58 37.31066 -121.87264 1261 ft 109 kts 319°
2026-05-04 23:59 37.31631 -121.87888 1117 ft 108 kts 319°
2026-05-04 23:59 37.32191 -121.88503 967 ft 107 kts 319°
2026-05-04 23:59 37.32754 -121.89123 838 ft 111 kts 319°
2026-05-04 23:59 37.33339 -121.89767 697 ft 113 kts 320°
2026-05-05 00:00 37.33929 -121.90414 539 ft 112 kts 319°
2026-05-05 00:00 37.34127 -121.90633 483 ft 112 kts 320°
2026-05-05 00:00 37.35086 -121.91688 238 ft 109 kts 319°
2026-05-05 00:00 37.35657 -121.92318 96 ft 110 kts 319°
2026-05-05 00:01 37.36183 -121.92892 58 ft 81 kts 318°
2026-05-05 00:01 37.36494 -121.93236 60 ft 43 kts 319°
2026-05-05 00:01 37.36674 -121.93398 60 ft 17 kts 351°
2026-05-05 00:01 37.36777 -121.93344 62 ft 16 kts 44°
2026-05-05 00:02 37.36850 -121.93241 62 ft 16 kts 49°
2026-05-05 00:02 37.36907 -121.93140 56 ft 14 kts 83°
2026-05-05 00:02 37.36844 -121.93041 58 ft 18 kts 139°
2026-05-05 00:02 37.36739 -121.92926 58 ft 21 kts 139°
2026-05-05 00:03 37.36664 -121.92844 61 ft 21 kts 138°
2026-05-05 00:03 37.36558 -121.92729 57 ft 20 kts 139°
2026-05-05 00:03 37.36457 -121.92617 61 ft 19 kts 139°
2026-05-05 00:03 37.36372 -121.92524 59 ft 9 kts 138°
2026-05-05 00:04 37.36335 -121.92482 61 ft 6 kts 138°
2026-05-05 00:04 37.36327 -121.92460 59 ft 2 kts 69°
2026-05-05 00:04 37.36348 -121.92429 58 ft 7 kts 48°
2026-05-05 00:04 37.36373 -121.92393 60 ft 2 kts 49°
2026-05-05 00:05 37.36375 -121.92391 60 ft 0 kts 49°